This demonstration page uses our WeatherBlox Daily Observations layout. Learn more.

39.51506, -84.39828

Hourly Observations for November 16, 2019

Temp ( °F °C ) Dew Point ( °F °C ) Humidity (%) Winds ( mph kmh ) Pressure ( in mb ) Visibility ( mi km ) Precip ( " mm )
12:15 am 00:15 Cloudy with Haze 33 0.4 28 -2.5 81 81 NE 7 11 30.42 1030 7 11.26538 0 0
12:35 am 00:35 Cloudy 33 0.6 28 -2.5 80 80 NE 14 22 30.42 1030 7 11.26538 0 0
12:55 am 00:55 Cloudy 33 0.7 28 -2.4 80 80 ENE 15 24 30.41 1030 7 11.26538 0 0
1:15 am 01:15 Cloudy 33 0.7 28 -2.5 79 79 NE 8 13 30.41 1030 7 11.26538 0 0
1:35 am 01:35 Cloudy 33 0.6 27 -2.9 78 78 NE 17 28 30.41 1030 7 11.26538 0 0
1:55 am 01:55 Cloudy 33 0.6 26 -3.1 77 77 NE 16 26 30.41 1030 7 11.26538 0 0
2:15 am 02:15 Cloudy 33 0.6 26 -3.1 77 77 NE 10 17 30.41 1030 7 11.26538 0 0
2:35 am 02:35 Cloudy 33 0.6 26 -3.1 77 77 ENE 14 22 30.41 1030 7 11.26538 0 0
2:55 am 02:55 Cloudy 33 0.6 26 -3.2 76 76 ENE 14 22 30.4 1030 7 11.26538 0 0
3:15 am 03:15 Cloudy 33 0.6 26 -3.3 75 75 NE 10 17 30.41 1030 7 11.26538 0 0
3:35 am 03:35 Cloudy 33 0.5 26 -3.4 75 75 NE 15 24 30.41 1030 7 11.26538 0 0
3:55 am 03:55 Cloudy 32 0.2 26 -3.5 76 76 ENE 6 9 30.41 1030 7 11.26538 0 0
4:15 am 04:15 Partly Cloudy 30 -1.1 25 -4.1 80 80 NE 6 9 30.41 1030 7 11.26538 0 0
4:35 am 04:35 Clear 30 -1 25 -3.8 82 82 Calm 30.41 1030 7 11.26538 0 0
4:55 am 04:55 Clear with Mist and Fog 29 -1.7 26 -3.3 89 89 Calm 30.41 1030 5 8.0467 0 0
5:15 am 05:15 Clear with Mist and Fog 29 -1.9 26 -3.4 90 90 Calm 30.41 1030 5 8.0467 0 0
5:35 am 05:35 Clear with Mist and Fog 26 -3.2 24 -4.2 93 93 Calm 30.41 1030 4 6.43736 0 0
5:55 am 05:55 Clear with Mist and Fog 26 -3.2 25 -3.9 95 95 Calm 30.41 1030 3.5 5.63269 0 0
6:15 am 06:15 Clear with Mist and Fog 26 -3.1 25 -3.8 95 95 Calm 30.41 1030 3.5 5.63269 0 0
6:35 am 06:35 Clear with Mist and Fog 27 -2.7 25 -3.8 92 92 N 5 7 30.42 1030 5 8.0467 0 0
6:55 am 06:55 Clear with Mist and Fog 27 -2.8 25 -3.9 92 92 Calm 30.42 1030 4 6.43736 0 0
7:15 am 07:15 Clear with Mist and Fog 26 -3.4 24 -4.5 92 92 N 3 6 30.44 1031 3.5 5.63269 0 0
7:35 am 07:35 Sunny with Mist and Fog 27 -3 24 -4.6 89 89 NNE 3 6 30.44 1031 4 6.43736 0 0
7:55 am 07:55 Sunny with Mist and Fog 29 -1.6 26 -3.4 88 88 NNE 5 7 30.44 1031 4 6.43736 0 0
8:15 am 08:15 Sunny with Mist and Fog 31 -0.8 27 -3 85 85 NNE 7 11 30.44 1031 4 6.43736 0 0
8:35 am 08:35 Hazy 32 -0.1 27 -2.7 83 83 NNE 8 13 30.44 1031 5 8.0467 0 0
8:55 am 08:55 Hazy 33 0.5 28 -2.5 81 81 NNE 7 11 30.43 1031 5 8.0467 0 0
9:15 am 09:15 Hazy 35 1.4 28 -2.3 77 77 NNE 8 13 30.44 1031 5 8.0467 0 0
9:35 am 09:35 Hazy 36 2.1 28 -2.2 73 73 NE 7 11 30.44 1031 7 11.26538 0 0
9:55 am 09:55 Hazy 37 2.9 28 -2 71 71 NE 10 17 30.44 1031 7 11.26538 0 0
10:15 am 10:15 Partly Cloudy 38 3.2 28 -2.1 69 69 NNE 8 13 30.44 1031 7 11.26538 0 0
10:35 am 10:35 Mostly Cloudy 40 4.2 28 -2.1 64 64 ENE 13 20 30.42 1030 10 16.0934 0 0
10:55 am 10:55 Partly Cloudy 41 5.1 29 -1.9 61 61 NE 16 26 30.41 1030 10 16.0934 0 0
11:15 am 11:15 Partly Cloudy 40 4.7 28 -2.2 61 61 E 14 22 30.41 1030 10 16.0934 0 0
11:35 am 11:35 Mostly Cloudy 40 4.7 28 -2 62 62 NE 10 17 30.4 1030 10 16.0934 0 0
11:55 am 11:55 Mostly Cloudy 42 5.6 29 -1.9 59 59 E 10 17 30.39 1029 10 16.0934 0 0
12:15 pm 12:15 Sunny 42 5.3 28 -2.2 59 59 ENE 10 17 30.37 1028 10 16.0934 0 0
12:35 pm 12:35 Partly Cloudy 43 6 29 -1.9 57 57 E 13 20 30.36 1028 10 16.0934 0 0
12:55 pm 12:55 Partly Cloudy 43 6 28 -2.2 56 56 ENE 10 17 30.35 1028 10 16.0934 0 0
1:15 pm 13:15 Partly Cloudy 43 6.2 29 -1.9 56 56 ENE 9 15 30.34 1027 10 16.0934 0 0
1:35 pm 13:35 Mostly Cloudy 44 6.4 29 -1.9 56 56 ENE 14 22 30.33 1027 10 16.0934 0 0
1:55 pm 13:55 Mostly Cloudy 44 6.5 29 -1.5 57 57 ENE 12 19 30.32 1027 7 11.26538 0 0
2:15 pm 14:15 Mostly Cloudy 42 5.7 29 -1.7 59 59 NNE 13 20 30.31 1026 10 16.0934 0 0
2:35 pm 14:35 Partly Cloudy 42 5.5 28 -2.1 58 58 ENE 12 19 30.31 1026 10 16.0934 0 0
2:55 pm 14:55 Partly Cloudy 43 5.9 29 -1.8 58 58 NNE 13 20 30.3 1026 10 16.0934 0 0
3:15 pm 15:15 Sunny 42 5.3 27 -2.7 57 57 NE 12 19 30.3 1026 10 16.0934 0 0
3:35 pm 15:35 Sunny 42 5.4 27 -2.7 56 56 NE 9 15 30.3 1026 10 16.0934 0 0
3:55 pm 15:55 Sunny 42 5.5 27 -2.6 56 56 NNE 8 13 30.3 1026 10 16.0934 0 0
4:15 pm 16:15 Sunny 42 5.4 27 -2.6 57 57 ENE 8 13 30.29 1026 10 16.0934 0 0
4:35 pm 16:35 Sunny 41 5.2 27 -2.7 57 57 ENE 10 17 30.29 1026 10 16.0934 0 0
4:55 pm 16:55 Sunny 40 4.6 27 -2.6 60 60 NE 6 9 30.29 1026 10 16.0934 0 0
5:15 pm 17:15 Sunny 40 4.4 27 -2.7 60 60 Calm 30.29 1026 10 16.0934 0 0
5:35 pm 17:35 Clear 39 3.9 28 -2.4 64 64 Calm 30.29 1026 10 16.0934 0 0
5:55 pm 17:55 Clear 35 1.8 29 -1.8 77 77 Calm 30.3 1026 10 16.0934 0 0
6:15 pm 18:15 Clear 34 1.3 28 -2.5 76 76 Calm 30.3 1026 10 16.0934 0 0
6:35 pm 18:35 Clear 29 -1.5 26 -3.4 87 87 Calm 30.31 1026 10 16.0934 0 0
6:55 pm 18:55 Clear 30 -1 26 -3.1 86 86 Calm 30.31 1026 10 16.0934 0 0
7:15 pm 19:15 Clear 30 -1.3 27 -2.8 90 90 NNE 3 6 30.31 1026 10 16.0934 0 0
7:35 pm 19:35 Clear 31 -0.4 28 -2.2 88 88 Calm 30.31 1026 10 16.0934 0 0
7:55 pm 19:55 Clear 31 -0.5 27 -2.8 85 85 Calm 30.3 1026 10 16.0934 0 0
8:15 pm 20:15 Clear 28 -2.1 25 -3.8 88 88 N 3 6 30.3 1026 10 16.0934 0 0
8:35 pm 20:35 Clear 27 -2.7 25 -4.1 90 90 N 5 7 30.3 1026 10 16.0934 0 0
8:55 pm 20:55 Clear 29 -1.5 26 -3.4 87 87 N 5 7 30.29 1026 10 16.0934 0 0
9:15 pm 21:15 Clear 28 -2.3 25 -3.7 90 90 N 6 9 30.29 1026 10 16.0934 0 0
9:35 pm 21:35 Clear 29 -1.5 26 -3.4 87 87 N 7 11 30.28 1025 10 16.0934 0 0
9:55 pm 21:55 Clear 29 -1.9 26 -3.4 90 90 N 5 7 30.28 1025 10 16.0934 0 0
10:15 pm 22:15 Clear 29 -1.5 26 -3.3 88 88 N 6 9 30.27 1025 10 16.0934 0 0
10:35 pm 22:35 Clear 30 -1.3 26 -3.2 87 87 N 6 9 30.27 1025 10 16.0934 0 0
10:55 pm 22:55 Clear 29 -1.9 25 -3.7 88 88 NNE 6 9 30.26 1025 10 16.0934 0 0
11:15 pm 23:15 Clear 27 -2.9 25 -4 92 92 Calm 30.26 1025 10 16.0934 0 0
11:35 pm 23:35 Clear 29 -1.9 26 -3.2 91 91 N 3 6 30.25 1024 7 11.26538 0 0
11:55 pm 23:55 Clear 27 -3 24 -4.2 92 92 Calm 30.25 1025 10 16.0934 0 0

Powered by AerisWeather